FW3734 Weather Reports


time (UTC)temp
C
wind
direction
speed
KPH
gust
KPH
rain 1hr
cm
rain 24hr
cm
rain mn
cm
humidity
%
barometer
mb
20260509160100 19 196 1.6 8.0 0.00 1.02 0.00 73 1009.6
20260509154604 18 200 0.0 8.0 0.00 1.02 0.00 79 1009.4
20260509153050 17 186 1.6 11.3 0.00 1.02 0.00 81 1009.5
20260509151546 17 215 1.6 8.0 0.00 1.02 0.00 84 1009.4
20260509150042 16 153 0.0 4.8 0.00 1.02 0.00 87 1009.4
20260509144558 15 196 3.2 12.9 0.00 1.02 0.00 90 1009.3
20260509143039 15 238 1.6 11.3 0.00 1.02 0.00 92 1009.4
20260509141537 15 204 1.6 6.4 0.00 1.02 0.00 93 1009.4
20260509140052 14 248 3.2 9.7 0.00 1.02 0.00 93 1009.1
20260509134528 13 208 0.0 3.2 0.00 1.02 0.00 94 1009.0
20260509133027 13 219 3.2 11.3 0.00 1.02 0.00 94 1009.0
20260509131534 13 329 0.0 9.7 0.00 1.02 0.00 94 1009.0
20260509130028 13 197 1.6 6.4 0.00 1.02 0.00 94 1009.1
20260509124524 13 200 0.0 0.0 0.00 1.02 0.00 94 1009.1
20260509123025 13 247 0.0 6.4 0.00 1.02 0.00 94 1009.1
20260509121521 13 281 0.0 4.8 0.00 1.02 0.00 94 1009.0
20260509120019 13 212 1.6 6.4 0.00 1.02 0.00 94 1008.8
20260509114518 13 274 3.2 12.9 0.00 1.02 0.00 94 1008.7
20260509113017 13 268 0.0 3.2 0.00 1.02 0.00 94 1008.5
20260509111515 13 209 0.0 1.6 0.00 1.02 0.00 94 1008.6
20260509110016 13 211 0.0 4.8 0.00 1.02 0.00 94 1008.6
20260509104515 13 201 1.6 6.4 0.00 1.02 0.00 94 1008.8
20260509103012 13 241 0.0 8.0 0.00 1.02 0.00 94 1008.5
20260509101511 13 193 0.0 3.2 0.00 1.02 0.00 94 1008.4
20260509100011 13 240 0.0 4.8 0.00 1.02 0.00 94 1008.2
20260509094508 13 188 0.0 4.8 0.00 1.02 0.00 94 1008.2
20260509093007 13 255 0.0 4.8 0.00 1.02 0.00 94 1008.2
20260509091506 13 231 0.0 3.2 0.00 1.02 0.00 94 1008.0
20260509090006 13 217 0.0 4.8 0.00 1.02 0.00 94 1007.9
20260509084507 13 277 0.0 3.2 0.00 1.02 0.00 94 1007.8
20260509083003 13 234 0.0 3.2 0.00 1.02 0.00 94 1008.0
20260509081502 13 290 0.0 6.4 0.00 1.02 0.00 93 1008.0
20260509080002 13 192 0.0 3.2 0.00 1.02 0.00 93 1007.8
20260509074603 13 215 0.0 4.8 0.00 1.02 0.00 93 1007.9
20260509073057 13 250 0.0 8.0 0.00 1.02 0.00 93 1007.9
20260509071556 13 235 0.0 0.0 0.00 1.02 0.00 93 1008.0
20260509070057 13 240 0.0 3.2 0.00 1.02 0.00 93 1008.0
20260509064554 13 263 0.0 1.6 0.00 1.02 0.00 93 1007.9
20260509063103 13 263 0.0 0.0 0.00 1.02 0.00 93 1008.0
20260509061551 13 194 0.0 0.0 0.00 1.02 0.00 93 1007.9
20260509060057 13 152 0.0 0.0 0.00 1.02 0.00 93 1007.8
20260509054549 13 152 0.0 0.0 0.00 1.02 0.00 93 1008.1
20260509053111 13 157 0.0 0.0 0.00 1.02 0.00 93 1008.1
20260509051545 13 128 0.0 1.6 0.00 1.02 0.00 92 1008.1
20260509050044 13 142 0.0 1.6 0.03 1.02 0.00 93 1008.1
20260509044543 13 150 0.0 3.2 0.08 1.02 1.02 92 1008.4
20260509043101 13 68 0.0 1.6 0.18 1.02 1.02 92 1008.3
20260509041555 14 217 0.0 0.0 0.33 1.02 1.02 92 1008.3
20260509040045 14 346 0.0 0.0 0.43 0.99 0.99 92 1008.9
20260509034558 14 346 0.0 0.0 0.56 0.94 0.94 91 1009.1
20260509033041 14 346 0.0 0.0 0.64 0.84 0.84 91 1009.3
20260509031539 14 346 0.0 0.0 0.61 0.69 0.69 91 1009.7
20260509030039 14 346 0.0 4.8 0.51 0.56 0.56 90 1009.4
20260509024537 15 20 0.0 11.3 0.33 0.38 0.38 89 1009.5
20260509023038 15 213 0.0 4.8 0.15 0.20 0.20 89 1009.4
20260509021535 15 349 0.0 0.0 0.03 0.08 0.08 88 1009.2
20260509020040 15 15 0.0 0.0 0.00 0.05 0.05 87 1009.0
20260509014534 15 21 0.0 0.0 0.03 0.05 0.05 86 1008.5
20260509013046 15 62 0.0 0.0 0.05 0.05 0.05 85 1008.3
20260509011534 16 74 0.0 6.4 0.05 0.05 0.05 83 1007.8
20260509010046 16 71 1.6 8.0 0.03 0.03 0.03 81 1008.1
20260509004530 17 355 0.0 12.9 0.03 0.03 0.03 77 1008.1
20260509003029 18 350 3.2 12.9 0.00 0.00 0.00 70 1007.8
20260509001528 19 360 0.0 4.8 0.00 0.00 0.00 64 1008.0
20260509000028 20 355 0.0 8.0 0.00 0.00 0.00 61 1007.9
20260508234528 21 16 0.0 4.8 0.00 0.00 0.00 59 1007.7
20260508233027 21 311 0.0 9.7 0.00 0.00 0.00 55 1007.8
20260508231524 21 251 0.0 0.0 0.00 0.00 0.00 53 1007.9
20260508230035 22 22 0.0 0.0 0.00 0.00 0.00 51 1008.0
20260508224533 22 350 0.0 1.6 0.00 0.00 0.00 50 1008.0
20260508223022 22 290 0.0 17.7 0.00 0.00 0.00 47 1008.0
20260508221537 23 300 0.0 8.0 0.00 0.00 0.00 47 1007.9
20260508220020 23 252 0.0 4.8 0.00 0.00 0.00 45 1008.0
20260508214518 23 310 0.0 17.7 0.00 0.00 0.00 43 1008.2
20260508213022 23 5 1.6 17.7 0.00 0.00 0.00 44 1008.2
20260508211513 23 279 1.6 19.3 0.00 0.00 0.00 45 1008.6
20260508210011 23 286 0.0 4.8 0.00 0.00 0.00 46 1008.6
20260508204512 23 44 0.0 17.7 0.00 0.00 0.00 47 1008.9
20260508203007 23 124 0.0 12.9 0.00 0.00 0.00 49 1009.1
20260508201502 22 5 0.0 8.0 0.00 0.00 0.00 50 1009.3
20260508194557 22 206 0.0 14.5 0.00 0.00 0.00 51 1009.5
20260508193102 22 325 0.0 12.9 0.00 0.00 0.00 52 1009.6
20260508191555 21 241 0.0 12.9 0.00 0.00 0.00 54 1009.7
20260508190051 21 211 0.0 0.0 0.00 0.00 0.00 55 1009.6
20260508184544 21 257 0.0 4.8 0.00 0.00 0.00 56 1009.9
20260508183041 21 201 0.0 0.0 0.00 0.00 0.00 57 1010.0
20260508181537 20 320 0.0 0.0 0.00 0.00 0.00 56 1010.3
20260508180034 20 232 0.0 1.6 0.00 0.00 0.00 55 1010.6
20260508174538 20 249 0.0 14.5 0.00 0.00 0.00 56 1010.8
20260508173029 19 254 0.0 4.8 0.00 0.00 0.00 59 1010.9
20260508171524 18 317 0.0 0.0 0.00 0.00 0.00 62 1011.2
20260508170023 18 284 0.0 6.4 0.00 0.00 0.00 62 1011.3
20260508164526 17 219 0.0 0.0 0.00 0.00 0.00 65 1011.7
20260508163016 17 196 0.0 0.0 0.00 0.00 0.00 65 1012.0
20260508161519 16 144 0.0 0.0 0.00 0.00 0.00 64 1012.0